Chillicothe, MO

8:01 AM CST on November 19, 2017 (GMT -0600)
Chillicothe

Weather History for KCDJ - December, 2012

Change the Weather History Date:

Saturday, December 1, 2012

  Actual Average (KIRK) Record (KIRK)
Temperature  
Mean Temperature 52 °F -  
Max Temperature 64 °F 41 °F 66 °F (1970)
Min Temperature 39 °F 26 °F 3 °F (1985)
Degree Days  
Heating Degree Days 14    
Growing Degree Days 2 (Base 50)    
Moisture  
Dew Point 49 °F    
Average Humidity 82    
Maximum Humidity 96    
Minimum Humidity 73    
Precipitation  
Precipitation 0.00 in - - ()
Sea Level Pressure  
Sea Level Pressure 29.91 in    
Wind  
Wind Speed 3 mph (SE)    
Max Wind Speed 9 mph    
Max Gust Speed -    
Averages and records for this station are not official NWS values.
T = Trace of Precipitation, MM = Missing Value Source: NWS Daily Summary

Daily Weather History Graph

Daily Weather History Graph

Search for Another Location

Airport or City:

Trip Planner

Search our weather history database for the weather conditions in past years. The results will help you decide how hot, cold, wet, or windy it might be!

Date:

Astronomy

Dec. 01, 2012 Rise Set
Actual Time 7:16 AM CST 4:50 PM CST
Civil Twilight 6:47 AM CST 5:19 PM CST
Nautical Twilight 6:13 AM CST 5:53 PM CST
Astronomical Twilight 5:40 AM CST 6:26 PM CST
Moon 7:40 PM CST (12/1) 9:30 AM CST (12/1)
Length of Visible Light 10h 32m
Length of Day
9h 33m
Waning Gibbous, 91% of the Moon is Illuminated
Dec 1
Waning Gibbous
Dec 6
Last Quarter
Dec 13
New
Dec 19
First Quarter
Dec 28
Full

Hourly Weather History & Observations

Time (CST) Temp. Windchill Dew Point Humidity Pressure Visibility Wind Dir Wind Speed Gust Speed Precip Events Conditions
12:52 AM 39.0 °F - 35.1 °F 86% 30.04 in - Calm Calm - N/A   Unknown
1:52 AM 42.1 °F - 36.0 °F 79% 30.01 in - Calm Calm - N/A   Unknown
2:52 AM 46.0 °F 43.9 °F 39.0 °F 76% 30.02 in - SSE 4.6 mph - N/A   Unknown
3:52 AM 46.9 °F - 41.0 °F 80% 30.00 in - Calm Calm - N/A   Unknown
4:52 AM 48.0 °F - 42.1 °F 80% 29.99 in - SE 3.5 mph - N/A   Unknown
5:52 AM 52.0 °F - 46.0 °F 80% 29.97 in - SE 6.9 mph - N/A   Unknown
6:52 AM 53.1 °F - 46.9 °F 80% 29.97 in - SE 6.9 mph - N/A   Unknown
7:52 AM 55.0 °F - 50.0 °F 83% 29.96 in - SSE 6.9 mph - N/A   Unknown
8:52 AM 55.9 °F - 51.1 °F 84% 29.96 in - SSE 6.9 mph - N/A   Unknown
9:52 AM 55.9 °F - 52.0 °F 87% 29.96 in - SSE 4.6 mph - N/A   Unknown
10:52 AM 57.9 °F - 53.1 °F 84% 29.94 in - SE 8.1 mph - N/A   Unknown
11:52 AM 60.1 °F - 53.1 °F 78% 29.90 in - SSE 9.2 mph - N/A   Unknown
12:52 PM 62.1 °F - 54.0 °F 75% 29.87 in - SSE 6.9 mph - N/A   Unknown
1:52 PM 64.0 °F - 55.0 °F 73% 29.86 in - SSE 9.2 mph - N/A   Unknown
2:52 PM 64.0 °F - 55.0 °F 73% 29.83 in - SE 8.1 mph - N/A   Unknown
3:52 PM 64.0 °F - 55.0 °F 73% 29.83 in - SE 4.6 mph - N/A   Unknown
4:52 PM 62.1 °F - 55.0 °F 78% 29.83 in - ESE 3.5 mph - N/A   Unknown
5:52 PM 60.1 °F - 54.0 °F 80% 29.83 in - SSE 3.5 mph - N/A   Unknown
6:52 PM 57.9 °F - 53.1 °F 84% 29.84 in - Calm Calm - N/A   Unknown
7:52 PM 55.9 °F - 52.0 °F 87% 29.85 in - Calm Calm - N/A   Unknown
8:52 PM 52.0 °F - 50.0 °F 93% 29.85 in - Calm Calm - N/A   Unknown
9:52 PM 51.1 °F - 48.0 °F 89% 29.86 in - Calm Calm - N/A   Unknown
10:52 PM 50.0 °F - 48.9 °F 96% 29.87 in - Calm Calm - N/A   Unknown
11:52 PM 46.0 °F - 45.0 °F 96% 29.88 in - Calm Calm - N/A   Unknown